Taylorville, IL

5:28 AM CDT on September 20, 2019 (GMT -0500)
Taylorville Municipal

Weather History for KTAZ - August, 2019

Change the Weather History Date:

Wednesday, August 21, 2019

  Actual Average (WUND) Record (WUND)
Temperature  
Mean Temperature 74 °F -  
Max Temperature 83 °F - - (-1)
Min Temperature 64 °F - - (-1)
Cooling Degree Days 8    
Growing Degree Days 24 (Base 50)    
Moisture  
Dew Point 71 °F    
Average Humidity 92    
Maximum Humidity 100    
Minimum Humidity 70    
Precipitation  
Precipitation 0.61 in - - ()
Sea Level Pressure  
Sea Level Pressure 29.99 in    
Wind  
Wind Speed 2 mph ()    
Max Wind Speed 17 mph    
Max Gust Speed 26 mph    
Visibility 8.1 miles    
Events Rain , Thunderstorm    
Averages and records for this station are not official NWS values.
T = Trace of Precipitation, MM = Missing Value Source: Averaged Metar Reports

Daily Weather History Graph

Daily Weather History Graph

Search for Another Location

Airport or City:

Astronomy

Aug. 21, 2019 Rise Set
Actual Time 6:15 AM CDT 7:45 PM CDT
Civil Twilight 5:46 AM CDT 8:13 PM CDT
Nautical Twilight 5:12 AM CDT 8:47 PM CDT
Astronomical Twilight 4:36 AM CDT 9:23 PM CDT
Moon 11:04 PM CDT (8/21) 11:49 AM CDT (8/21)
Length of Visible Light 14h 26m
Length of Day
13h 29m
Waning Gibbous, 69% of the Moon is Illuminated
Aug 21
Waning Gibbous
Aug 23
Last Quarter
Aug 30
New
Sep 5
First Quarter
Sep 13
Full

Hourly Weather History & Observations

Time (CDT) Temp. Heat Index Dew Point Humidity Pressure Visibility Wind Dir Wind Speed Gust Speed Precip Events Conditions
12:15 AM 67.5 °F - 67.3 °F 99% 30.01 in 10.0 mi Calm Calm - N/A   Clear
12:35 AM 67.6 °F - 67.5 °F 99% 30.01 in 7.0 mi Calm Calm - N/A   Clear
12:55 AM 66.9 °F - 66.7 °F 99% 30.01 in 7.0 mi Calm Calm - N/A   Clear
1:15 AM 66.4 °F - 66.2 °F 99% 30.01 in 4.0 mi Calm Calm - N/A   Clear
1:35 AM 66.6 °F - 66.4 °F 99% 30.00 in 7.0 mi Calm Calm - N/A   Clear
1:55 AM 66.4 °F - 66.2 °F 99% 30.00 in 7.0 mi Calm Calm - N/A   Clear
2:15 AM 66.4 °F - 66.2 °F 99% 30.00 in 5.0 mi Calm Calm - N/A   Clear
2:35 AM 65.8 °F - 65.7 °F 99% 30.00 in 5.0 mi Calm Calm - N/A   Clear
2:55 AM 65.1 °F - 64.9 °F 99% 30.00 in 4.0 mi Calm Calm - N/A   Clear
3:15 AM 65.8 °F - 65.7 °F 99% 29.99 in 4.0 mi South 4.6 mph - N/A   Scattered Clouds
3:35 AM 66.2 °F - 66.2 °F 100% 29.99 in 4.0 mi South 3.5 mph - N/A   Scattered Clouds
3:55 AM 65.5 °F - 65.5 °F 100% 29.97 in 4.0 mi Calm Calm - N/A   Clear
4:15 AM 65.1 °F - 65.1 °F 100% 29.97 in 4.0 mi SSW 3.5 mph - N/A   Clear
4:35 AM 65.3 °F - 65.3 °F 100% 29.96 in 4.0 mi Calm Calm - N/A   Clear
4:55 AM 65.3 °F - 64.9 °F 99% 29.96 in 4.0 mi Calm Calm - N/A   Clear
5:15 AM 65.1 °F - 64.9 °F 99% 29.96 in 4.0 mi Calm Calm - N/A   Clear
5:35 AM 64.8 °F - 64.6 °F 99% 29.97 in 3.0 mi Calm Calm - N/A   Clear
5:55 AM 64.6 °F - 64.6 °F 100% 29.98 in 4.0 mi Calm Calm - N/A   Clear
6:15 AM 64.6 °F - 64.6 °F 100% 29.99 in 2.5 mi Calm Calm - N/A   Clear
6:35 AM 64.8 °F - 64.8 °F 100% 29.99 in 2.5 mi Calm Calm - N/A   Clear
6:55 AM 65.7 °F - 65.7 °F 100% 30.00 in 3.0 mi Calm Calm - N/A   Clear
7:15 AM 66.7 °F - 66.6 °F 99% 30.02 in 4.0 mi SW 3.5 mph - N/A   Clear
7:35 AM 68.0 °F - 68.0 °F 100% 30.01 in 5.0 mi Calm Calm - N/A   Clear
7:55 AM 68.5 °F - 68.5 °F 100% 30.01 in 7.0 mi SSW 3.5 mph - N/A   Clear
8:15 AM 69.6 °F - 69.6 °F 100% 30.01 in 10.0 mi Calm Calm - N/A   Clear
8:35 AM 70.7 °F - 70.5 °F 99% 30.00 in 10.0 mi Calm Calm - N/A   Clear
8:55 AM 71.6 °F - 70.9 °F 98% 30.00 in 10.0 mi Calm Calm - N/A   Scattered Clouds
9:15 AM 73.4 °F - 71.8 °F 95% 30.00 in 10.0 mi Calm Calm - N/A   Scattered Clouds
9:35 AM 75.4 °F - 72.5 °F 91% 30.00 in 10.0 mi Calm Calm - N/A   Clear
9:55 AM 76.5 °F - 72.3 °F 87% 30.00 in 10.0 mi Calm Calm - N/A   Mostly Cloudy
10:15 AM 77.4 °F - 72.9 °F 86% 30.01 in 10.0 mi Calm Calm - N/A   Mostly Cloudy
10:35 AM 78.4 °F - 73.2 °F 84% 30.01 in 10.0 mi Calm Calm - N/A   Scattered Clouds
10:55 AM 79.7 °F - 74.3 °F 83% 30.02 in 10.0 mi Calm Calm - N/A   Clear
11:15 AM 81.3 °F 87.8 °F 75.6 °F 83% 30.02 in 10.0 mi West 3.5 mph - N/A   Clear
11:35 AM 81.9 °F 89.2 °F 76.1 °F 83% 30.03 in 10.0 mi WNW 5.8 mph - N/A   Scattered Clouds
11:55 AM 81.1 °F 87.8 °F 76.3 °F 85% 30.04 in 10.0 mi WSW 6.9 mph - N/A   Mostly Cloudy
12:15 PM 82.4 °F 90.3 °F 76.3 °F 82% 30.04 in 10.0 mi West 8.1 mph - N/A   Mostly Cloudy
12:35 PM 80.8 °F 86.9 °F 75.7 °F 85% 30.05 in 10.0 mi West 13.8 mph - N/A   Overcast
12:55 PM 77.9 °F - 75.0 °F 91% 30.06 in 4.0 mi West 15.0 mph 20.7 mph 0.07 in Rain , Thunderstorm Thunderstorms and Rain
1:15 PM 75.0 °F - 73.8 °F 96% 30.05 in 1.5 mi NNW 12.7 mph 16.1 mph 0.51 in Rain , Thunderstorm Heavy Thunderstorms and Rain
1:35 PM 75.6 °F - 74.3 °F 96% 30.03 in 10.0 mi North 13.8 mph 18.4 mph 0.52 in Rain , Thunderstorm Light Thunderstorms and Rain
1:55 PM 76.1 °F - 73.9 °F 93% 30.00 in 10.0 mi North 15.0 mph 20.7 mph 0.52 in Rain Light Rain
2:15 PM 77.9 °F - 73.9 °F 88% 29.99 in 10.0 mi North 17.3 mph 26.5 mph N/A   Scattered Clouds
2:35 PM 79.2 °F - 75.2 °F 88% 29.98 in 10.0 mi North 12.7 mph 18.4 mph N/A   Clear
2:55 PM 81.5 °F 87.8 °F 75.0 °F 81% 29.96 in 10.0 mi NNE 11.5 mph 20.7 mph N/A   Scattered Clouds
3:15 PM 81.0 °F 85.4 °F 72.3 °F 75% 29.97 in 10.0 mi NNE 4.6 mph - N/A   Mostly Cloudy
3:35 PM 81.7 °F 85.8 °F 70.9 °F 70% 29.97 in 10.0 mi NE 3.5 mph - N/A   Overcast
3:55 PM 83.1 °F 88.9 °F 72.9 °F 71% 29.96 in 10.0 mi East 4.6 mph - N/A   Scattered Clouds
4:15 PM 82.0 °F 87.4 °F 72.9 °F 74% 29.97 in 10.0 mi East 3.5 mph - N/A   Clear
4:35 PM 82.4 °F 87.9 °F 72.9 °F 73% 29.96 in 10.0 mi ENE 4.6 mph - N/A   Clear
4:55 PM 82.6 °F 89.1 °F 74.3 °F 76% 29.96 in 10.0 mi ESE 3.5 mph - N/A   Clear
5:15 PM 81.9 °F 88.2 °F 74.7 °F 79% 29.95 in 10.0 mi SE 5.8 mph - N/A   Scattered Clouds
5:35 PM 82.6 °F 89.9 °F 75.4 °F 79% 29.96 in 10.0 mi SE 3.5 mph - N/A   Mostly Cloudy
5:55 PM 81.5 °F 87.2 °F 73.9 °F 78% 29.97 in 10.0 mi SE 4.6 mph - N/A   Scattered Clouds
6:15 PM 80.2 °F 85.7 °F 75.7 °F 86% 29.97 in 10.0 mi Calm Calm - N/A   Scattered Clouds
6:35 PM 80.2 °F 86.0 °F 76.5 °F 88% 29.98 in 10.0 mi West 4.6 mph - N/A   Mostly Cloudy
6:55 PM 78.8 °F - 75.4 °F 89% 29.98 in 10.0 mi West 4.6 mph - N/A   Scattered Clouds
7:15 PM 77.9 °F - 74.8 °F 90% 29.98 in 10.0 mi West 4.6 mph - N/A   Mostly Cloudy
7:35 PM 77.4 °F - 74.3 °F 90% 29.98 in 10.0 mi WNW 3.5 mph - N/A   Scattered Clouds
7:55 PM 76.8 °F - 73.8 °F 90% 29.98 in 10.0 mi WNW 3.5 mph - N/A Rain Light Rain
8:15 PM 75.4 °F - 73.4 °F 94% 29.98 in 10.0 mi WNW 4.6 mph - N/A   Scattered Clouds
8:35 PM 75.2 °F - 73.4 °F 94% 30.00 in 10.0 mi NW 4.6 mph - N/A   Scattered Clouds
8:55 PM 75.2 °F - 72.9 °F 92% 30.01 in 10.0 mi NNW 4.6 mph - N/A   Mostly Cloudy
9:15 PM 74.5 °F - 72.7 °F 94% 30.01 in 10.0 mi NNW 3.5 mph - N/A   Mostly Cloudy
9:35 PM 74.3 °F - 72.5 °F 94% 30.00 in 10.0 mi NNW 5.8 mph - N/A   Mostly Cloudy
9:55 PM 73.8 °F - 72.5 °F 96% 29.99 in 10.0 mi North 4.6 mph - N/A   Mostly Cloudy
10:15 PM 73.6 °F - 72.5 °F 96% 29.99 in 10.0 mi Calm Calm - N/A   Overcast
10:35 PM 73.4 °F - 72.5 °F 97% 29.99 in 10.0 mi Calm Calm - N/A Rain Rain
10:55 PM 73.4 °F - 72.5 °F 97% 29.99 in 10.0 mi North 3.5 mph - 0.01 in Rain Light Rain
11:15 PM 73.4 °F - 72.5 °F 97% 29.98 in 10.0 mi NNE 4.6 mph - 0.01 in   Clear
11:35 PM 73.4 °F - 72.5 °F 97% 29.98 in 10.0 mi NNE 4.6 mph - 0.01 in   Scattered Clouds
11:55 PM 73.4 °F - 72.1 °F 96% 29.99 in 10.0 mi Calm Calm - 0.01 in   Overcast